Location: Casale Marcigliana
(42.0167°N, 12.5167°E)
Time: 07:51:29
(UTC+00:00)

Daily predictions for brighter satellites

Satellite Brightness Start Highest point End
(mag) Time Altitude Azimuth Time Altitude Azimuth Time Altitude Azimuth
Lacrosse 5 3.7 16:45:40 10° NNW 16:48:57 17° NNE 16:52:13 10° NE
Cosmos 1626 2.6 16:47:16 10° NNW 16:50:59 69° W 16:54:40 10° S
Cosmos 2228 3.2 16:48:08 10° S 16:52:23 53° E 16:56:38 10° NNE
SMAP 3.6 16:47:59 10° S 16:52:36 68° WSW 16:57:15 10° NNW
Cosmos 1726 3.1 16:51:37 10° SSE 16:54:42 26° E 16:57:48 10° NNE
Shenzhou-11 Module 1.7 16:53:14 10° W 16:56:01 84° N 16:58:47 10° E
Cosmos 1992 Rocket 4.0 16:51:19 10° SSW 16:56:33 88° ESE 17:01:48 10° NNE
Cosmos 1833 Rocket 4.1 16:54:17 10° N 16:58:09 19° NE 17:02:00 10° E
Cosmos 1242 Rocket 3.4 16:56:43 10° NNE 17:00:00 29° ENE 17:03:16 10° SE
Cosmos 1271 Rocket 2.8 16:56:30 10° N 17:00:28 63° E 17:04:26 10° SSE
Cosmos 2058 Rocket 3.5 16:57:46 10° SSE 17:01:50 40° E 17:05:55 10° NNE
Cosmos 921 Rocket 3.1 16:57:58 10° S 17:02:23 59° ESE 17:06:48 10° NNE
Cosmos 1503 Rocket 4.0 16:59:34 10° NNW 17:04:46 90° ENE 17:09:57 10° SSE
CZ-4C R/B 3.4 16:57:33 10° NW 17:04:55 71° WSW 17:13:10 10° SSE
Okean-O 2.9 17:00:53 10° S 17:05:17 75° WSW 17:09:45 10° NNW
Cosmos 2084 4.2 17:01:29 10° SW 17:05:58 58° NW 17:10:23 10° NNE
Cosmos 839 Rocket 4.4 17:01:32 10° NNW 17:07:31 46° NE 17:14:12 10° SE
Cosmos 2239 Rocket 4.4 17:01:23 10° N 17:07:32 74° E 17:13:39 10° SSE
SL-4 R/B 2.0 17:07:08 10° WNW 17:11:02 72° SW 17:14:37 10° SE
COBE Rocket 4.0 17:06:05 10° NNE 17:11:17 83° ESE 17:16:21 10° S
H-2A R/B 4.0 17:07:40 10° S 17:11:25 47° W 17:15:13 10° NNW
Cosmos 1821 Rocket 4.0 17:08:56 10° N 17:15:04 87° W 17:21:14 10° S
Cosmos 1605 Rocket 4.4 17:09:32 10° N 17:15:19 39° ENE 17:20:59 10° SE
EO 1 Delta rocket 4.2 17:14:22 10° SE 17:18:40 40° ENE 17:23:09 10° N
OAO 3 Rocket 4.3 17:15:12 10° WSW 17:19:42 36° S 17:23:38 13° ESE
BREEZE M DEB (TANK) 2.6 17:17:34 10° NW 17:19:50 38° NNE 17:23:08 15° E
Cosmos 2082 Rocket 3.6 17:16:04 10° N 17:20:09 19° NE 17:22:45 15° E
USA 116 3.5 17:18:04 10° NNE 17:21:08 44° E 17:24:23 10° S
COSMO-SKYMED 1 2.5 17:16:56 10° NNE 17:21:18 84° ESE 17:25:38 10° SSW
Meteor 2-10 4.0 17:16:52 10° S 17:21:52 59° E 17:26:49 10° NNE
Nadezhda 3 Rocket 4.5 17:16:01 10° SSW 17:22:14 67° W 17:28:34 10° N
Cosmos 1703 3.6 17:18:40 10° N 17:22:27 43° ENE 17:26:11 10° SSE
CSL-04 Debris 4.2 17:18:32 10° SSE 17:23:54 62° ENE 17:29:18 10° N
BREEZE-M DEB (TANK) 4.0 17:09:40 10° SW 17:24:34 58° SSE 17:27:55 17° ENE
COSMOS 2406 3.3 17:19:23 10° NNW 17:25:05 56° ENE 17:30:42 10° SE
Cosmos 1934 Rocket 4.0 17:19:55 10° N 17:26:16 74° E 17:32:36 10° SSE
H-2A R/B 3.9 17:26:14 12° ENE 17:26:22 12° ENE 17:28:11 10° NE
Cosmos 1953 3.9 17:24:30 10° SSW 17:28:19 39° WNW 17:32:11 10° N
Abrixas rocket 2.4 17:26:41 10° SW 17:29:37 45° SE 17:31:00 25° E
Cosmos 1535 Rocket 4.4 17:24:31 10° N 17:30:46 81° E 17:36:53 10° S
YAOGAN 6 2.6 17:28:30 10° SSE 17:32:11 90° E 17:35:51 10° NNW
Cosmos 1953 Rocket 4.0 17:28:09 10° NNW 17:32:30 64° W 17:36:46 10° S
Unknown 4.2 17:35:07 10° NNW 17:37:48 25° NNE 17:38:29 23° NE
Cosmos 1844 Rocket 4.0 17:32:52 10° SW 17:38:11 40° WNW 17:43:29 10° N
FengYun 1-2 T 4.4 17:33:21 10° S 17:39:00 78° WSW 17:44:39 10° NNW
Meteor 1-11 4.2 17:36:41 10° N 17:42:27 68° ENE 17:48:13 10° SSE
Envisat 4.0 17:41:31 10° S 17:46:26 50° W 17:51:23 10° NNW
Unknown 2.4 17:44:47 10° NW 17:47:26 62° NE 17:47:38 59° ENE
BREEZE-M DEB (TANK) 2.3 17:45:23 10° WSW 17:50:24 88° SSE 17:51:13 42° ENE
IRS-1A Rocket 4.5 17:45:14 10° SE 17:50:27 46° ENE 17:55:42 10° N
ADEOS Rocket 4.2 17:44:49 10° NE 17:51:00 26° E 17:56:49 10° SE
OAO 2 Rocket 4.5 17:46:35 10° WSW 17:51:23 36° S 17:54:22 20° SE
Cosmos 1908 3.2 17:48:58 10° S 17:52:52 84° W 17:56:48 10° N
Cosmos 1461 3.7 17:54:21 10° NNW 17:58:01 31° NE 17:58:04 31° NE
Cosmos 1939 Rocket 2.7 17:54:58 10° SSE 17:58:54 69° ENE 18:02:55 10° N
Cosmos 2278 Rocket 2.1 17:53:38 10° SSW 17:59:17 77° ESE 18:04:59 10° NNE
Lacrosse 5 rocket 3.0 17:56:58 10° WNW 18:00:20 29° SW 18:03:51 10° S
ATLAS 3B R/B 4.2 17:56:25 10° SSE 17:58:13 15° SE 17:58:13 15° SE
Cosmos 1812 Rocket 3.6 17:57:31 10° S 18:01:47 52° E 18:06:07 10° NNE
DMSP B5D1-3 4.5 17:59:33 10° NNE 18:04:43 88° WNW 18:09:51 10° SSW
ATLAS 5 CENTAUR R/B 4.3 18:03:29 10° WNW 18:06:10 15° NNW 18:09:02 10° N
Cosmos 1153 Rocket 4.3 18:03:48 10° N 18:09:56 68° E 18:16:02 10° SSE
YAOGAN 1 3.8 18:07:02 10° S 18:11:08 43° W 18:15:17 10° NNW
CENTAUR R/B 4.3 18:08:35 10° SSE 18:08:57 11° SSE 18:08:57 11° SSE
Cosmos 1076 Rocket 3.8 18:10:54 10° N 18:14:33 47° NE 18:14:33 47° NE
Cosmos 482 Debris 4.5 18:11:19 10° WNW 18:15:32 48° SW 18:15:52 46° SSW
CZ-4 R/B 3.9 18:18:39 10° SSW 18:22:02 24° W 18:25:28 10° NW
USA 238 DEB 3.5 18:17:33 10° SSW 18:24:12 75° ESE 18:28:52 22° NE
USA 238 3.5 18:17:40 10° SSW 18:24:18 74° ESE 18:28:55 22° NE
Ariane Rocket 3.2 18:23:53 10° S 18:28:57 71° WSW 18:34:04 10° NNW
Shenzhou-11 Module 4.4 18:28:36 10° W 18:29:46 22° W 18:29:46 22° W
USA 234 4.2 18:33:44 29° SSE 18:33:44 29° SSE 18:37:54 10° S
Lacrosse 5 2.4 18:28:16 10° NW 18:32:48 42° NNE 18:32:48 42° NNE
Cosmos 2061 Rocket 4.4 18:29:17 10° N 18:34:20 42° NE 18:34:20 42° NE
ARGOS 4.1 18:38:25 33° NNE 18:38:25 33° NNE 18:41:50 10° N
Cosmos 1833 Rocket 2.7 18:37:05 10° NNW 18:42:42 75° WSW 18:44:18 48° S
SPOT 3 Rocket 4.1 18:48:34 46° NNE 18:48:34 46° NNE 18:52:20 10° N
NOSS 3-2 (A) 3.2 18:44:18 10° SW 18:50:00 89° NW 18:51:20 58° NNE
Cosmos 1459 Rocket 3.9 18:51:52 10° N 18:58:06 88° W 18:58:57 69° S
NOSS 3-3 (A) 4.4 18:50:56 10° NNW 18:58:32 75° NE 18:59:43 65° ESE
NOSS 3-3 (C) 4.4 18:51:02 10° NNW 18:58:37 75° NE 18:59:47 65° ESE
Gbstr 26 Del rocket 4.1 18:57:09 10° NW 19:03:44 82° NE 19:04:05 79° ENE
Cosmos 2082 Rocket 2.3 18:59:08 10° NNW 19:04:38 72° W 19:04:38 72° W
H-2A R/B 3.0 19:06:53 40° N 19:06:53 40° N 19:10:15 10° N
SJ 16-02 4.1 19:02:20 10° N 19:02:25 10° N 19:02:25 10° N
NOSS 3-2 (C) 4.3 19:07:19 10° SSW 19:10:26 35° SSW 19:10:26 35° SSW
Cosmos 1802 Rocket 4.1 19:11:41 10° N 19:17:48 74° WNW 19:17:48 74° WNW
Cosmos 2173 Rocket 4.4 19:15:12 10° NNW 19:21:20 58° W 19:22:02 55° WSW
ADEOS Rocket 3.7 19:29:21 10° N 19:36:59 65° WNW 19:44:04 10° SSW
